timestamp,wind_dir_avg,wind_spd_avg,wind_spd_max_dir,wind_spd_gust,battery_voltage,lat,long
2022-08-04 00:04:00+00:00,213.0,7.43,215.0,8.58,12.73,47.59359,-54.27349
2022-08-04 00:14:01+00:00,212.0,6.5,215.0,7.4,12.49,47.59359,-54.27349
2022-08-04 00:24:01+00:00,213.0,5.45,214.0,5.9,12.49,47.59359,-54.27349
2022-08-04 00:34:01+00:00,213.0,5.68,212.0,5.99,12.49,47.59359,-54.27349
2022-08-04 00:44:01+00:00,212.0,6.66,211.0,7.39,12.49,47.59359,-54.27349
2022-08-04 00:54:01+00:00,218.0,6.17,214.0,6.94,12.49,47.59359,-54.27349
2022-08-04 01:04:01+00:00,221.0,6.53,220.0,7.46,12.49,47.59359,-54.27349
2022-08-04 01:14:00+00:00,235.0,5.46,235.0,5.87,12.41,47.59359,-54.27349
2022-08-04 01:24:00+00:00,233.0,6.25,236.0,7.05,12.41,47.59359,-54.27349
2022-08-04 01:34:00+00:00,219.0,5.07,221.0,6.1,12.41,47.59359,-54.27349
2022-08-04 01:44:00+00:00,185.0,4.87,184.0,5.44,12.41,47.59359,-54.27349
2022-08-04 01:54:00+00:00,214.0,6.21,212.0,6.68,12.41,47.59359,-54.27349
2022-08-04 02:04:00+00:00,224.0,5.58,227.0,6.16,12.41,47.59359,-54.27349
2022-08-04 02:14:00+00:00,212.0,5.48,220.0,6.16,12.41,47.59359,-54.27349
2022-08-04 02:24:00+00:00,210.0,5.03,210.0,6.08,12.41,47.59359,-54.27349
2022-08-04 02:34:00+00:00,211.0,6.87,207.0,7.45,12.41,47.59359,-54.27349
2022-08-04 02:44:00+00:00,206.0,6.4,206.0,7.11,12.41,47.59359,-54.27349
2022-08-04 02:54:00+00:00,207.0,6.98,208.0,7.6,12.41,47.59359,-54.27349
2022-08-04 03:04:00+00:00,212.0,6.84,212.0,7.32,12.41,47.59359,-54.27349
2022-08-04 03:14:01+00:00,217.0,6.04,218.0,6.61,12.41,47.59359,-54.27349
2022-08-04 03:24:01+00:00,217.0,5.51,216.0,6.17,12.41,47.59359,-54.27349
2022-08-04 03:34:01+00:00,212.0,4.94,213.0,5.81,12.41,47.59359,-54.27349
2022-08-04 03:44:01+00:00,214.0,5.74,214.0,6.56,12.41,47.59359,-54.27349
2022-08-04 03:54:01+00:00,209.0,6.38,207.0,6.76,12.41,47.59359,-54.27349
2022-08-04 04:04:01+00:00,212.0,6.32,212.0,6.99,12.41,47.59359,-54.27349
2022-08-04 04:14:00+00:00,218.0,6.45,219.0,7.14,12.41,47.59359,-54.27349
2022-08-04 04:24:00+00:00,216.0,4.66,214.0,5.39,12.41,47.59359,-54.27349
2022-08-04 04:34:00+00:00,221.0,5.24,220.0,5.94,12.41,47.59359,-54.27349
2022-08-04 04:44:00+00:00,218.0,5.66,217.0,6.21,12.41,47.59359,-54.27349
2022-08-04 04:54:00+00:00,213.0,4.91,224.0,6.0,12.41,47.59359,-54.27349
2022-08-04 05:04:00+00:00,221.0,5.12,221.0,6.19,12.41,47.59359,-54.27349
2022-08-04 05:14:00+00:00,218.0,4.95,218.0,5.73,12.41,47.59359,-54.27349
2022-08-04 05:24:00+00:00,226.0,4.48,227.0,5.13,12.41,47.59359,-54.27349
2022-08-04 05:34:00+00:00,233.0,4.79,233.0,5.18,12.41,47.59359,-54.27349
2022-08-04 05:44:00+00:00,245.0,5.33,245.0,5.88,12.41,47.59359,-54.27349
2022-08-04 05:54:00+00:00,231.0,5.09,227.0,5.76,12.41,47.59359,-54.27349
2022-08-04 06:04:00+00:00,232.0,5.1,229.0,5.78,12.41,47.59359,-54.27349
2022-08-04 06:14:00+00:00,238.0,4.15,243.0,4.62,12.41,47.59359,-54.27349
2022-08-04 06:24:00+00:00,246.0,4.54,249.0,4.85,12.41,47.59359,-54.27349
2022-08-04 06:34:00+00:00,234.0,2.99,238.0,3.83,12.41,47.59359,-54.27349
2022-08-04 06:44:00+00:00,246.0,2.89,249.0,3.36,12.41,47.59359,-54.27349
2022-08-04 06:54:00+00:00,263.0,2.84,266.0,3.3,12.41,47.59359,-54.27349
2022-08-04 07:04:00+00:00,250.0,2.01,252.0,2.38,12.41,47.59359,-54.27349
2022-08-04 07:14:01+00:00,249.0,1.22,249.0,1.49,12.41,47.59359,-54.27349
2022-08-04 07:24:01+00:00,231.0,2.37,235.0,2.94,12.41,47.59359,-54.27349
2022-08-04 07:34:01+00:00,259.0,2.61,260.0,2.84,12.41,47.59359,-54.27349
2022-08-04 07:44:01+00:00,276.0,1.34,278.0,1.56,12.41,47.59359,-54.27349
2022-08-04 07:54:01+00:00,249.0,2.19,253.0,3.31,12.41,47.59359,-54.27349
2022-08-04 08:04:01+00:00,278.0,2.22,280.0,2.68,12.41,47.59359,-54.27349
2022-08-04 08:14:00+00:00,286.0,3.42,288.0,3.74,12.33,47.59359,-54.27349
2022-08-04 08:24:00+00:00,278.0,3.55,278.0,3.75,12.33,47.59359,-54.27349
2022-08-04 08:34:00+00:00,267.0,3.27,267.0,3.58,12.33,47.59359,-54.27349
2022-08-04 08:44:00+00:00,278.0,3.77,279.0,3.93,12.33,47.59359,-54.27349
2022-08-04 08:54:00+00:00,281.0,2.75,280.0,3.05,12.33,47.59359,-54.27349
2022-08-04 09:04:00+00:00,283.0,3.33,287.0,3.66,12.33,47.59359,-54.27349
2022-08-04 09:14:00+00:00,300.0,2.5,305.0,3.01,12.17,47.59359,-54.27349
2022-08-04 09:24:00+00:00,282.0,4.0,282.0,4.21,12.17,47.59359,-54.27349
2022-08-04 09:34:00+00:00,277.0,2.82,276.0,3.3,12.17,47.59359,-54.27349
2022-08-04 09:44:00+00:00,279.0,2.6,281.0,3.06,12.17,47.59359,-54.27349
2022-08-04 09:54:00+00:00,273.0,1.97,273.0,2.89,12.17,47.59359,-54.27349
2022-08-04 10:04:00+00:00,277.0,2.17,278.0,2.49,12.17,47.59359,-54.27349
2022-08-04 10:14:00+00:00,279.0,3.17,279.0,3.71,12.41,47.59359,-54.27349
2022-08-04 10:24:00+00:00,281.0,2.83,272.0,3.34,12.41,47.59359,-54.27349
2022-08-04 10:34:00+00:00,285.0,3.02,282.0,3.64,12.41,47.59359,-54.27349
2022-08-04 10:44:00+00:00,271.0,3.27,267.0,3.52,12.41,47.59359,-54.27349
2022-08-04 10:54:00+00:00,275.0,2.46,277.0,2.94,12.41,47.59359,-54.27349
2022-08-04 11:04:00+00:00,263.0,2.55,269.0,3.9,12.41,47.59359,-54.27349
2022-08-04 11:14:00+00:00,239.0,2.76,246.0,3.81,13.13,47.59359,-54.27349
2022-08-04 11:24:00+00:00,251.0,3.52,257.0,5.28,13.13,47.59359,-54.27349
2022-08-04 11:34:00+00:00,234.0,3.62,240.0,4.55,13.13,47.59359,-54.27349
2022-08-04 11:44:00+00:00,225.0,4.0,227.0,5.22,13.13,47.59359,-54.27349
2022-08-04 11:54:00+00:00,230.0,3.98,232.0,4.5,13.13,47.59359,-54.27349
2022-08-04 12:04:00+00:00,264.0,4.03,266.0,4.38,13.13,47.59359,-54.27349
2022-08-04 12:14:00+00:00,268.0,3.22,264.0,3.55,13.29,47.59359,-54.27349
2022-08-04 12:24:00+00:00,272.0,2.29,273.0,3.45,13.29,47.59359,-54.27349
2022-08-04 12:34:00+00:00,264.0,2.1,267.0,3.56,13.29,47.59359,-54.27349
2022-08-04 12:44:00+00:00,244.0,2.68,253.0,3.82,13.29,47.59359,-54.27349
2022-08-04 12:54:00+00:00,225.0,4.41,230.0,5.04,13.29,47.59359,-54.27349
2022-08-04 13:04:00+00:00,229.0,3.91,236.0,4.73,13.29,47.59359,-54.27349
2022-08-04 13:14:00+00:00,222.0,3.9,224.0,4.45,13.6,47.59359,-54.27349
2022-08-04 13:24:00+00:00,220.0,4.19,216.0,4.68,13.6,47.59359,-54.27349
2022-08-04 13:34:00+00:00,215.0,5.25,217.0,5.59,13.6,47.59359,-54.27349
2022-08-04 13:44:00+00:00,212.0,4.94,219.0,5.53,13.6,47.59359,-54.27349
2022-08-04 13:54:00+00:00,213.0,4.72,220.0,5.18,13.6,47.59359,-54.27349
2022-08-04 14:04:00+00:00,213.0,4.62,226.0,5.73,13.6,47.59359,-54.27349
2022-08-04 14:14:01+00:00,195.0,3.75,195.0,4.11,13.6,47.59359,-54.27349
2022-08-04 14:24:01+00:00,197.0,4.13,201.0,4.56,13.6,47.59359,-54.27349
2022-08-04 14:34:01+00:00,215.0,4.84,222.0,5.71,13.6,47.59359,-54.27349
2022-08-04 14:44:01+00:00,215.0,5.14,215.0,5.54,13.6,47.59359,-54.27349
2022-08-04 14:54:01+00:00,212.0,5.68,213.0,6.27,13.6,47.59359,-54.27349
2022-08-04 15:04:01+00:00,208.0,5.92,212.0,6.46,13.6,47.59359,-54.27349
2022-08-04 15:14:01+00:00,206.0,6.41,205.0,7.26,13.76,47.59359,-54.27349
2022-08-04 15:24:01+00:00,203.0,5.66,202.0,6.17,13.76,47.59359,-54.27349
2022-08-04 15:34:01+00:00,202.0,6.36,198.0,7.56,13.76,47.59359,-54.27349
2022-08-04 15:44:01+00:00,210.0,6.05,211.0,7.18,13.76,47.59359,-54.27349
2022-08-04 15:54:01+00:00,197.0,6.88,199.0,7.6,13.76,47.59359,-54.27349
2022-08-04 16:04:01+00:00,201.0,6.93,198.0,8.08,13.76,47.59359,-54.27349
2022-08-04 16:14:01+00:00,207.0,6.4,208.0,7.08,13.84,47.59359,-54.27349
2022-08-04 16:24:01+00:00,204.0,6.84,206.0,8.11,13.84,47.59359,-54.27349
2022-08-04 16:34:01+00:00,211.0,7.34,213.0,8.21,13.84,47.59359,-54.27349
2022-08-04 16:44:01+00:00,212.0,7.86,214.0,8.99,13.84,47.59359,-54.27349
2022-08-04 16:54:01+00:00,213.0,8.42,212.0,9.68,13.84,47.59359,-54.27349
2022-08-04 17:04:01+00:00,210.0,8.88,213.0,9.56,13.84,47.59359,-54.27349
2022-08-04 17:14:00+00:00,204.0,8.09,208.0,9.07,13.76,47.59359,-54.27349
2022-08-04 17:24:00+00:00,211.0,8.42,211.0,9.45,13.76,47.59359,-54.27349
2022-08-04 17:34:00+00:00,210.0,8.48,215.0,9.62,13.76,47.59359,-54.27349
2022-08-04 17:44:00+00:00,210.0,8.12,213.0,9.07,13.76,47.59359,-54.27349
2022-08-04 17:54:00+00:00,209.0,9.19,211.0,9.73,13.76,47.59359,-54.27349
2022-08-04 18:04:00+00:00,207.0,8.09,207.0,9.57,13.76,47.59359,-54.27349
2022-08-04 18:14:01+00:00,209.0,8.67,207.0,9.46,13.84,47.59359,-54.27349
2022-08-04 18:24:01+00:00,208.0,9.38,208.0,10.39,13.84,47.59359,-54.27349
2022-08-04 18:34:01+00:00,208.0,7.47,216.0,8.94,13.84,47.59359,-54.27349
2022-08-04 18:44:01+00:00,206.0,8.68,206.0,9.36,13.84,47.59359,-54.27349
2022-08-04 18:54:01+00:00,207.0,8.23,205.0,9.16,13.84,47.59359,-54.27349
2022-08-04 19:04:01+00:00,218.0,7.12,218.0,7.98,13.84,47.59359,-54.27349
2022-08-04 19:14:00+00:00,218.0,9.08,220.0,10.36,13.68,47.59359,-54.27349
2022-08-04 19:24:00+00:00,221.0,10.3,222.0,11.6,13.68,47.59359,-54.27349
2022-08-04 19:34:00+00:00,219.0,9.31,217.0,10.8,13.68,47.59359,-54.27349
2022-08-04 19:44:00+00:00,217.0,9.75,218.0,10.58,13.68,47.59359,-54.27349
2022-08-04 19:54:00+00:00,215.0,9.16,215.0,10.09,13.68,47.59359,-54.27349
2022-08-04 20:04:00+00:00,214.0,9.36,215.0,10.38,13.68,47.59359,-54.27349
2022-08-04 20:14:00+00:00,211.0,9.4,213.0,10.77,13.68,47.59359,-54.27349
2022-08-04 20:24:00+00:00,210.0,8.57,202.0,9.22,13.68,47.59359,-54.27349
2022-08-04 20:34:00+00:00,214.0,8.99,216.0,9.86,13.68,47.59359,-54.27349
2022-08-04 20:44:00+00:00,213.0,8.94,217.0,10.41,13.68,47.59359,-54.27349
2022-08-04 20:54:00+00:00,212.0,8.62,211.0,9.8,13.68,47.59359,-54.27349
2022-08-04 21:04:00+00:00,215.0,8.8,218.0,9.73,13.68,47.59359,-54.27349
2022-08-04 21:14:00+00:00,215.0,8.03,217.0,8.81,13.53,47.59359,-54.27349
2022-08-04 21:24:00+00:00,216.0,8.27,218.0,9.42,13.53,47.59359,-54.27349
2022-08-04 21:34:00+00:00,217.0,8.09,220.0,9.18,13.53,47.59359,-54.27349
2022-08-04 21:44:00+00:00,216.0,8.37,216.0,9.2,13.53,47.59359,-54.27349
2022-08-04 21:54:00+00:00,218.0,8.83,217.0,10.07,13.53,47.59359,-54.27349
2022-08-04 22:04:00+00:00,217.0,7.86,216.0,8.51,13.53,47.59359,-54.27349
2022-08-04 22:14:01+00:00,214.0,8.44,212.0,10.07,13.29,47.59359,-54.27349
2022-08-04 22:24:01+00:00,212.0,9.47,210.0,10.59,13.29,47.59359,-54.27349
2022-08-04 22:34:01+00:00,215.0,8.64,220.0,10.38,13.29,47.59359,-54.27349
2022-08-04 22:44:01+00:00,215.0,10.1,214.0,11.4,13.29,47.59359,-54.27349
2022-08-04 22:54:01+00:00,214.0,10.31,215.0,11.39,13.29,47.59359,-54.27349
2022-08-04 23:04:01+00:00,217.0,10.16,218.0,11.18,13.29,47.59359,-54.27349
2022-08-04 23:14:00+00:00,212.0,9.91,214.0,11.12,12.73,47.59359,-54.27349
2022-08-04 23:24:00+00:00,212.0,10.5,214.0,11.81,12.73,47.59359,-54.27349
2022-08-04 23:34:00+00:00,210.0,9.42,206.0,10.74,12.73,47.59359,-54.27349
2022-08-04 23:44:00+00:00,219.0,9.68,225.0,10.58,12.73,47.59359,-54.27349
2022-08-04 23:54:00+00:00,217.0,9.05,223.0,10.41,12.73,47.59359,-54.27349
